{"data":{"norad_id":66582,"epoch":"2026-05-24T16:09:53.190720Z","epoch_age_seconds":103994,"freshness":"FRESH","line1":"1 66582U 25268AB  26144.67353230  .00015436  00000+0  56914-3 0  9992","line2":"2 66582  43.0008 277.6692 0001254 282.7361  77.3350 15.27586972 29585","mean_motion":15.27586972,"eccentricity":0.0001254,"inclination_deg":43.0008,"raan_deg":277.6692,"arg_perigee_deg":282.7361,"mean_anomaly_deg":77.335,"bstar":0.00056914,"rev_number":2958,"period_min":94.266318474468,"perigee_km":482.16782932437,"apogee_km":483.88860956141,"semimajor_km":6861.1652194429,"source":"CELESTRAK","updated_at":"2026-05-25T13:38:21.285383Z"}}